User: anonymous   Login
Location: Unspecified
(0.0000°N, 0.0000°E)
Time: 12:57:27
(UTC+00:00)
Language:

TET - Orbit

View from above orbital plane
View from above orbital plane
View from above satellite
View from above satellite

Ground track
Ground track

The orbit data is extracted from the following two-line orbital elements,

1 38710U 12039D   21342.16081034  .00008849  00000-0  12032-3 0  9999
2 38710  97.5341  45.6874 0002538  55.5929 304.5566 15.57844107527530
Epoch (UTC): 08 December 2021 03:51:34
Eccentricity: 0.0002538
inclination: 97.5341°
perigee height: 392 km
apogee height: 395 km
right ascension of ascending node: 45.6874°
argument of perigee: 55.5929°
revolutions per day: 15.57844107
mean anomaly at epoch: 304.5566°
orbit number at epoch: 52753

The dashed part of the orbit path shows where the satellite is in the earth's shadow,  

DLR